Location: Buckenweiler
(49.0667°N, 10.2500°E)
Time: 18:06:38
(UTC+00:00)

NOAA 12 - Pass Details

Date: 14 April 2026
Orbit: 792 x 813 km, 98.6° (Epoch: 12 May)

Event Time Altitude Azimuth Distance (km) Brightness Sun altitude
Rises 02:53:47 0° 31° (NNE) 3,331 8.6 -15.1°
Reaches altitude 10° 02:57:32 10° 58° (ENE) 2,389 8.0 -14.6°
Maximum altitude 02:59:59 13° 86° (E) 2,158 7.3 -14.3°
Drops below altitude 10° 03:02:26 10° 114° (ESE) 2,374 7.0 -13.9°
Sets 03:06:06 0° 141° (SE) 3,292 7.4 -13.4°
